Theta_e
322 321 321 322 322 322 321 320 321 321 322 322 321 321 319 319 318 318 319 319 320 321 322 323 324 325 319 305 309 344 363 360 354 345 339 335 331 327 321 327 328 325 327 330 330 330 323
322 322 322 323 323 322 322 321 321 320 321 321 321 320 319 318 318 317 318 320 320 321 322 323 324 326 313 302 333 348 354 340 335 334 332 339 337 334 329 326 324 328 328 328 329 326 325
323 323 323 323 322 322 321 321 321 320 320 320 320 318 317 317 317 317 317 319 319 321 322 323 324 324 310 305 346 352 340 336 339 336 334 342 341 328 330 321 329 326 320 324 329 327 324
323 322 322 322 322 321 321 321 321 321 319 320 319 317 317 316 316 316 318 318 319 320 321 323 325 316 300 317 344 343 341 341 344 342 338 341 342 333 328 328 326 323 323 312 324 327 324
322 322 322 321 321 320 320 320 320 320 320 319 318 318 316 316 316 317 317 317 318 320 322 323 311 309 298 332 335 338 341 337 340 338 339 344 337 326 326 319 313 317 307 313 318 327 323
321 321 321 321 321 320 319 319 319 319 319 319 318 317 316 315 316 316 315 316 320 318 321 323 323 301 306 311 318 329 338 344 337 335 334 331 325 316 318 313 302 308 308 315 314 321 322
320 320 320 320 320 319 319 319 319 319 319 318 318 317 316 314 316 315 312 309 302 306 310 297 297 300 308 310 320 325 340 339 338 334 322 328 317 312 313 315 314 314 315 313 317 322 319
319 319 319 319 319 319 318 318 318 318 318 318 317 317 316 313 315 314 308 302 305 313 304 311 307 310 312 312 309 318 338 328 325 319 320 316 312 320 321 318 316 314 313 313 318 322 319
318 318 318 318 318 318 317 317 317 317 317 317 317 316 315 313 313 308 306 308 315 309 301 307 309 306 306 310 306 313 331 324 321 316 315 312 316 321 319 315 314 312 310 311 313 317 315
318 318 318 317 317 317 317 317 317 316 316 316 316 316 314 312 307 307 311 310 311 311 297 302 301 305 305 307 303 313 328 322 316 313 315 315 317 316 314 313 315 306 317 318 317 309 301
318 318 318 317 317 317 316 316 316 316 316 316 316 315 313 311 308 308 313 309 308 306 292 306 299 305 302 304 305 309 321 320 314 314 313 312 311 311 310 312 316 310 319 317 314 307 304
318 318 317 317 317 316 316 316 316 315 315 315 315 313 312 308 307 308 310 309 308 300 295 299 301 298 298 299 302 306 316 319 320 315 311 312 313 313 312 318 318 320 314 312 308 305 296
317 317 317 317 316 316 315 315 315 315 314 314 312 310 310 313 305 312 309 310 301 297 308 301 296 296 295 297 299 300 306 307 305 301 302 307 307 311 318 314 317 313 302 297 295 295 296
317 317 317 316 316 315 315 315 315 314 314 312 310 309 310 313 311 310 310 306 296 304 305 308 300 294 295 296 296 297 298 297 303 303 298 298 298 307 314 311 310 308 302 298 290 292 296
316 316 316 316 315 315 315 315 314 314 313 311 309 308 308 312 313 310 308 298 298 304 309 306 296 292 291 294 295 295 296 296 300 304 301 295 298 306 311 314 315 308 303 304 301 299 297
316 316 316 315 315 315 315 314 314 313 312 311 305 312 316 314 315 309 304 299 301 309 310 305 294 295 291 293 294 293 294 299 300 306 307 301 296 303 307 311 312 308 311 300 297 292 291
315 315 315 315 315 315 315 314 313 312 311 310 307 313 317 312 310 309 302 302 307 312 312 306 302 299 295 297 294 292 295 300 303 305 306 299 297 299 301 302 305 306 301 301 301 298 294
315 315 315 315 314 315 315 314 313 311 310 308 303 303 315 313 307 303 302 305 308 311 313 308 307 303 301 303 300 297 296 299 306 305 304 302 298 296 299 302 307 306 303 301 297 295 300
315 315 315 315 314 314 315 313 312 310 310 308 303 304 318 315 304 302 306 309 311 310 310 309 306 307 306 302 301 303 305 309 311 305 304 303 297 292 296 297 302 301 301 297 300 302 299
314 314 314 315 314 314 314 313 312 310 310 306 307 309 312 311 307 305 306 308 308 315 314 314 310 308 306 302 304 304 305 311 312 309 324 309 294 296 295 295 299 301 304 301 303 300 299
313 313 314 314 314 314 314 313 312 310 310 309 309 306 307 305 307 307 306 309 309 309 314 314 309 310 309 302 302 302 305 307 309 315 305 301 297 294 295 299 303 303 304 303 301 303 303
313 313 313 314 314 314 314 314 313 310 310 302 303 300 303 304 305 305 303 306 310 312 311 308 308 311 309 306 307 305 305 303 302 305 300 301 297 298 298 304 304 303 305 306 305 306 307
313 313 313 313 313 314 314 314 313 311 308 300 300 301 304 302 305 304 302 308 311 312 315 315 314 313 311 310 311 311 309 306 304 305 301 301 299 297 295 301 301 299 303 305 308 311 311
312 312 313 313 312 312 314 314 313 312 310 304 307 304 301 300 306 308 310 312 312 313 310 314 314 310 315 313 311 307 305 304 306 305 303 300 298 295 294 297 292 301 312 312 312 315 316
311 312 312 312 312 313 313 314 314 313 312 301 308 302 298 297 303 303 307 310 311 310 309 312 316 316 312 309 303 300 299 299 302 304 303 302 299 296 295 293 299 306 312 312 310 311 318
310 311 312 312 312 312 313 313 314 313 312 301 302 303 299 299 295 304 304 306 304 305 308 313 317 316 306 302 300 296 296 297 298 299 299 300 299 299 295 294 295 304 313 319 318 303 319
311 311 311 311 312 312 313 313 313 313 312 303 300 305 304 299 300 300 301 303 309 307 305 308 309 312 306 299 297 296 297 301 297 296 298 298 298 297 296 296 300 307 316 318 302 305 319
311 311 311 311 311 311 312 312 312 312 313 305 300 306 300 295 295 300 302 299 301 303 302 305 307 307 306 297 298 297 297 300 297 298 299 299 298 297 297 295 296 315 317 308 310 317 320
310 311 311 311 311 311 311 312 312 312 312 310 299 302 303 295 293 300 301 304 304 303 302 304 306 306 309 302 301 301 302 303 301 301 300 299 302 301 302 302 309 316 315 318 317 317 321
Wind_Speed
20 20 20 20 19 19 20 21 21 20 20 19 17 13 10 8 6 4 3 3 4 6 8 8 7 8 2 1 6 1 4 8 6 3 4 3 5 3 4 1 1 2 3 3 6 7 13
20 21 21 20 20 20 20 21 21 21 20 20 18 13 11 9 6 4 3 3 4 6 8 8 6 7 1 2 2 7 6 4 6 3 3 3 4 4 5 2 2 2 2 2 4 9 9
20 20 21 21 21 22 22 21 21 22 19 19 17 15 12 9 7 5 3 4 5 5 8 8 5 3 0 4 1 6 5 3 2 4 4 1 4 2 6 3 2 4 3 1 6 4 3
20 21 21 21 22 22 22 22 22 21 22 18 18 16 13 10 8 6 5 5 5 5 6 8 4 1 5 4 6 6 5 5 8 6 6 2 4 6 3 6 2 4 4 4 2 2 2
21 21 22 22 23 23 23 23 23 22 21 20 20 17 14 10 8 7 6 4 4 4 4 5 2 2 2 2 5 3 2 7 5 3 5 5 4 3 3 1 3 4 3 3 2 2 4
22 22 22 23 23 23 24 24 24 23 22 20 18 17 14 10 8 6 6 2 1 1 2 3 3 3 1 6 5 7 2 6 5 4 4 5 5 3 3 3 3 6 5 5 6 6 3
22 23 24 24 24 24 24 24 24 23 22 21 18 17 13 10 8 7 3 4 3 3 1 7 4 3 1 1 7 5 6 4 4 2 3 2 4 4 10 9 2 2 3 0 5 1 2
23 24 24 24 24 25 25 25 25 24 23 22 19 16 14 10 8 6 1 2 4 4 5 5 2 6 5 2 4 6 12 7 5 3 4 3 4 7 7 6 6 5 2 2 4 1 1
22 22 23 24 24 25 25 26 26 24 24 22 20 16 13 9 6 1 2 6 2 3 3 5 4 4 6 7 4 11 17 4 4 4 5 4 6 4 4 5 7 3 4 2 3 3 2
21 22 22 24 25 25 26 26 26 25 24 23 20 16 12 9 2 1 5 2 2 2 5 4 3 6 4 3 3 7 10 6 1 7 8 6 4 3 5 5 6 1 5 3 7 4 2
21 22 23 24 25 26 26 27 27 27 25 23 21 17 11 4 4 3 1 4 3 3 6 3 2 1 2 8 4 5 6 4 8 6 5 7 2 2 4 5 10 6 7 8 6 5 3
22 22 23 25 26 26 27 27 28 29 28 26 23 18 7 3 2 6 5 3 3 7 3 1 5 4 3 2 2 5 6 0 4 5 3 6 3 3 5 5 7 7 9 8 5 3 4
22 23 23 25 26 27 27 28 30 30 30 28 26 18 8 3 1 4 2 3 7 5 4 1 4 4 3 4 2 2 5 5 6 3 5 6 5 2 5 8 4 4 5 4 6 4 6
22 23 24 25 26 27 28 30 31 32 32 31 29 1 6 4 3 6 3 7 4 1 5 4 3 3 7 4 3 3 4 1 1 5 4 4 7 6 4 5 7 3 4 6 2 3 5
22 23 24 25 26 28 29 30 32 34 35 34 20 1 1 4 7 3 6 5 5 4 3 4 2 3 1 1 2 3 6 6 8 9 8 5 7 3 3 4 9 5 4 3 6 2 3
22 23 24 25 27 28 29 31 32 35 38 32 3 3 3 3 6 4 6 4 3 4 3 1 1 2 4 3 5 6 6 5 7 12 7 5 4 1 2 5 5 3 7 3 2 2 4
22 23 24 25 27 28 30 31 33 37 38 26 3 4 5 4 0 6 3 6 5 7 4 3 2 2 4 2 6 4 6 7 8 6 7 7 5 7 2 5 9 2 1 5 4 4 4
21 22 23 25 26 28 30 32 32 33 36 8 3 3 3 2 4 1 2 5 4 5 3 2 2 1 2 2 3 6 8 7 6 9 12 8 6 6 11 3 2 4 6 6 6 4 2
21 22 23 24 26 28 29 31 32 33 28 4 3 3 3 4 2 3 6 5 4 3 3 3 2 1 1 3 2 4 3 4 6 9 12 10 3 2 10 8 4 3 4 5 4 3 6
21 22 24 24 25 27 29 31 33 33 27 2 2 4 5 5 1 2 3 4 4 4 4 2 3 1 4 2 2 4 3 5 2 5 7 8 4 10 10 8 5 4 5 6 6 3 5
20 21 22 23 24 26 28 29 32 36 28 2 5 1 3 3 3 5 2 2 3 4 2 4 1 4 6 3 3 4 3 6 4 3 3 5 9 5 5 6 4 3 4 7 8 6 7
20 21 21 21 23 24 26 27 30 35 28 6 4 5 7 3 3 3 1 3 1 5 3 3 2 4 5 7 8 7 3 3 4 4 2 2 3 2 3 3 3 5 5 3 7 4 10
19 20 21 22 22 23 24 24 26 28 18 4 3 3 1 4 5 2 3 4 3 7 6 7 7 10 6 5 7 10 8 3 5 2 1 3 7 4 5 2 1 4 7 7 5 5 6
20 20 21 22 22 22 22 22 22 23 18 2 2 2 3 5 3 3 7 9 13 3 5 10 11 5 3 4 5 4 4 2 5 5 3 4 5 3 2 2 2 8 3 4 8 6 8
20 20 21 21 21 21 20 20 19 19 19 3 3 3 3 5 4 9 13 8 14 6 7 7 6 5 4 2 4 3 4 3 4 3 5 4 5 4 5 3 5 3 6 7 7 8 7
18 17 18 18 18 19 19 20 18 17 18 3 2 0 2 3 3 6 7 8 6 5 7 6 6 7 3 3 4 7 6 5 4 2 3 6 4 5 3 5 8 10 3 6 3 7 9
17 17 17 16 17 17 18 19 18 17 14 4 2 3 1 3 4 5 2 4 6 5 5 5 12 9 4 1 3 4 5 5 4 5 5 3 3 6 3 3 8 8 5 5 4 9 6
16 16 16 16 16 16 17 18 18 17 15 4 4 3 3 3 10 7 4 4 6 3 4 8 10 4 5 1 4 5 5 7 2 4 7 8 8 5 2 2 7 7 6 9 8 3 6
17 16 16 16 16 16 16 16 16 16 15 7 3 2 2 4 9 7 16 23 20 19 6 4 5 8 6 3 3 0 2 2 5 5 1 4 8 8 11 11 3 7 2 2 4 4 5
Wind_Direction
13 9 4 359 356 356 357 357 358 355 350 353 353 357 351 352 348 341 322 289 278 282 288 300 326 325 341 241 257 169 168 181 136 155 59 91 43 106 109 135 184 48 52 353 318 38 54
6 1 356 354 353 352 351 351 353 356 354 354 354 357 355 351 350 338 310 284 278 277 285 298 325 313 352 229 74 143 150 115 76 79 68 3 156 147 85 352 53 130 174 300 348 72 61
359 357 354 352 352 351 350 350 349 355 353 355 357 356 356 355 351 340 310 290 280 276 284 297 326 291 216 253 114 150 136 81 46 130 108 13 114 112 169 170 166 111 96 354 36 45 93
360 357 355 352 350 349 349 349 348 351 357 355 356 358 356 354 353 335 316 296 281 275 285 296 318 280 243 2 135 140 149 67 51 56 95 123 115 93 38 331 35 63 50 21 359 347 119
1 358 356 353 351 349 349 348 347 349 350 355 359 357 356 351 348 333 315 304 282 268 265 291 326 33 295 324 138 201 50 122 89 63 92 106 73 66 37 41 42 14 163 191 235 231 136
2 358 356 353 350 349 348 348 349 347 347 350 349 359 355 349 334 327 307 265 141 74 252 233 266 20 134 221 169 148 139 132 100 135 90 41 45 59 13 84 214 202 202 210 180 190 159
4 360 356 353 350 349 348 347 346 347 344 345 348 353 356 345 324 341 61 104 44 33 264 191 219 248 185 301 127 169 140 114 134 71 122 33 73 208 218 219 290 299 334 131 76 2 217
5 1 357 353 351 349 347 345 344 344 343 342 343 348 353 345 329 344 81 165 206 167 314 231 243 280 241 260 106 146 146 169 174 150 122 53 237 232 224 233 240 271 271 60 102 291 114
4 0 357 354 352 350 348 345 343 343 341 338 338 339 342 339 324 355 193 233 87 86 117 297 191 217 235 137 199 190 166 158 172 152 179 189 239 134 200 213 208 217 227 82 111 111 39
2 360 356 354 352 349 347 344 341 340 339 335 335 333 327 329 317 214 247 235 62 146 71 303 270 270 157 132 221 196 174 143 283 207 162 244 272 191 202 241 157 269 223 167 104 80 353
1 359 356 354 351 349 347 343 340 337 338 333 331 329 318 278 143 177 139 10 111 76 49 295 168 297 269 155 154 237 187 126 181 201 129 251 242 269 231 234 162 238 93 97 96 87 74
359 358 357 354 351 348 345 342 339 336 336 334 331 325 300 169 206 248 2 347 61 41 22 61 142 158 150 355 284 114 141 259 147 137 290 240 282 224 206 34 123 96 80 50 59 67 1
359 357 356 353 351 348 345 343 340 337 335 335 333 324 179 199 189 341 319 74 33 85 335 280 207 160 164 197 303 88 132 153 162 99 293 340 270 240 135 87 7 132 56 15 8 15 227
0 357 356 354 351 348 346 345 341 338 338 337 333 191 230 237 318 337 77 48 44 221 249 311 52 70 170 156 268 43 79 215 71 94 108 133 318 193 176 177 164 147 132 146 284 234 270
360 359 357 355 352 350 348 347 344 341 340 338 325 220 241 267 207 324 72 67 215 211 248 318 87 114 265 213 197 163 190 211 203 164 166 174 272 273 163 146 132 194 218 164 98 344 310
359 358 357 355 353 351 350 349 348 345 341 339 340 340 354 45 149 57 74 229 230 228 339 79 105 130 168 220 163 158 187 219 220 184 155 199 302 193 92 79 27 163 147 104 31 246 292
358 357 357 355 355 353 352 351 350 349 343 331 11 47 325 40 24 52 147 233 272 255 219 188 175 146 203 195 195 226 219 262 203 186 147 139 125 282 4 174 173 160 183 65 124 142 176
357 357 357 357 356 355 353 352 351 349 345 26 10 61 313 9 48 50 182 202 256 288 343 299 137 131 144 100 239 233 222 228 171 150 164 193 151 236 242 318 257 168 181 144 130 238 129
358 357 358 358 358 357 355 353 352 351 355 328 51 278 314 80 91 316 299 282 231 258 268 302 275 208 183 137 300 202 257 226 150 163 171 176 193 1 340 347 351 204 187 112 88 75 186
358 358 357 357 360 360 357 355 353 351 352 60 35 19 334 41 113 134 322 275 287 230 245 240 259 18 115 66 232 278 272 288 166 192 161 100 136 165 204 202 161 200 168 144 124 136 171
358 359 358 357 359 1 360 359 356 351 352 343 16 44 151 323 348 330 255 280 289 304 227 202 278 262 145 153 268 242 258 328 312 34 68 122 191 165 223 227 180 231 188 164 182 193 193
359 359 359 1 360 2 3 2 2 357 348 69 40 14 345 286 300 316 221 252 216 334 288 278 156 215 242 155 180 256 190 165 252 339 108 24 205 170 213 322 248 252 214 190 253 235 260
356 358 358 1 3 1 4 7 6 8 5 50 342 343 52 299 337 355 255 311 317 350 278 239 17 325 245 237 188 218 199 201 238 218 179 138 132 110 233 125 255 342 230 212 223 222 169
354 356 356 357 360 2 3 7 9 11 18 350 35 321 4 292 319 324 330 310 293 281 274 283 297 234 285 123 109 92 76 279 273 254 125 131 104 107 156 75 197 238 198 218 237 222 220
349 347 349 351 354 356 359 4 9 7 9 41 348 38 29 301 317 297 343 312 317 295 239 253 253 248 275 44 66 13 333 350 277 278 175 134 129 87 130 187 277 285 216 189 194 249 203
340 339 341 343 346 349 353 359 3 9 1 41 348 26 46 335 275 333 321 310 300 311 306 274 319 308 44 85 108 164 209 210 288 260 90 98 94 111 140 159 195 232 203 133 152 287 177
332 333 333 337 339 343 347 352 356 1 6 21 303 335 242 286 277 22 303 320 322 337 295 324 336 325 19 85 138 159 224 194 206 213 201 120 59 152 175 198 281 243 149 131 121 236 151
319 323 328 330 330 333 337 340 344 350 355 33 286 342 29 313 287 247 293 309 317 300 305 339 340 359 333 324 171 197 165 216 157 215 191 178 142 179 107 137 269 152 84 163 209 205 177
320 317 317 320 321 322 326 328 331 336 341 8 302 311 76 201 260 287 266 247 241 255 280 239 259 328 273 334 341 286 182 142 156 242 68 254 176 179 185 205 237 211 197 209 161 141 201